Date,TemperatureHighF,TemperatureAvgF,TemperatureLowF,DewpointHighF,DewpointAvgF,DewpointLowF,HumidityHigh,HumidityAvg,HumidityLow,PressureMaxIn,PressureMinIn,WindSpeedMaxMPH,WindSpeedAvgMPH,GustSpeedMaxMPH,PrecipitationSumIn
2013-2-1,42,35,23,30,14,-1,81,45,18,30.07,29.59,19,5,19,0.00
2013-2-2,47,33,19,35,20,11,86,59,31,30.09,29.73,17,3,17,0.00
2013-2-3,57,42,32,36,29,22,96,64,32,29.73,29.55,14,3,14,0.00
2013-2-4,53,38,25,31,26,21,96,66,37,29.93,29.71,9,2,9,0.00
2013-2-5,68,46,34,38,34,29,94,65,28,29.83,29.73,8,2,8,0.00
2013-2-6,68,44,28,38,29,13,99,67,13,30.09,29.82,10,2,10,0.00
2013-2-7,43,39,34,40,35,26,99,84,63,30.14,29.63,12,5,12,0.51
2013-2-8,64,42,36,48,39,36,99,89,53,29.63,29.46,11,4,11,0.13
2013-2-9,60,40,27,30,23,11,95,60,15,30.41,30.16,8,2,8,0.00
2013-2-10,58,41,26,44,28,20,93,65,23,30.52,30.26,7,2,7,0.06
2013-2-11,59,50,43,58,50,43,99,98,93,30.24,30.03,7,1,7,0.07
2013-2-12,64,50,42,50,36,24,99,66,23,30.17,29.98,8,2,8,0.01
2013-2-13,46,44,40,46,43,34,99,95,78,30.00,29.73,6,2,6,0.09
2013-2-14,55,42,29,38,34,29,99,76,44,30.13,29.88,8,2,8,0.00
2013-2-15,67,44,28,41,34,28,99,74,28,29.99,29.82,15,2,15,0.00
2013-2-16,43,36,29,34,30,16,97,81,51,29.88,29.73,8,2,8,0.07
2013-2-17,45,32,24,19,12,4,80,46,19,30.16,29.86,24,2,24,0.00
2013-2-18,56,35,18,32,21,16,92,62,25,30.28,30.14,11,3,11,0.00
2013-2-19,46,40,32,44,38,26,99,91,61,29.88,29.54,9,2,9,0.13
2013-2-20,59,41,26,32,20,4,99,50,11,29.79,29.66,9,2,9,0.00
2013-2-21,64,41,23,34,21,4,89,53,10,29.92,29.76,8,2,8,0.00
2013-2-22,42,36,34,36,34,29,99,94,62,29.98,29.77,8,3,8,0.22
2013-2-23,42,38,34,42,38,34,99,99,96,29.80,29.50,7,2,7,0.14
2013-2-24,70,49,35,45,37,23,99,72,19,29.69,29.48,13,2,13,0.00
2013-2-25,42,37,31,33,27,24,97,67,50,29.87,29.69,12,4,12,0.00
2013-2-26,45,39,32,45,37,25,99,95,64,29.77,29.24,10,3,10,0.64
2013-2-27,61,47,36,43,39,35,99,78,45,29.46,29.31,8,2,8,0.01
2013-2-28,52,40,31,39,30,23,99,70,37,29.54,29.37,21,3,21,0.00